Regional Weather Roundup
Issued by NWS

Home | Current Version | Previous Version | Text Only | Print | Product List | Glossary On
Versions: 1 2 3 4 5 6 7 8 9 10 11 12 13 14 15 16 17 18 19 20 21 22 23 24 25 26 27 28 29 30 31 32 33 34 35 36 37 38 39 40 41 42 43 44 45 46 47 48 49 50
000
ASUS44 KLIX 231911
RWRLA
LOUISIANA WEATHER ROUNDUP
NATIONAL WEATHER SERVICE NEW ORLEANS LA
200 PM CDT SAT JUL 23 2016

NOTE: "FAIR" INDICATES FEW OR NO CLOUDS BELOW 12,000 FEET WITH NO
      SIGNIFICANT WEATHER AND/OR OBSTRUCTIONS TO VISIBILITY.
      SKY/WX - SKY CONDITION AND SIGNIFICANT WEATHER.
      TMP - AIR TEMPERATURE.    DP   - DEWPOINT TEMPERATURE.
      RH  - RELATIVE HUMIDITY.  PRES - PRESSURE.
      HX  - HEAT INDEX.         WCI  - WIND CHILL INDEX.

*  THESE STATIONS ARE NOT NWS OR FAA STATIONS AND ARE NOT UNDER
   NWS QUALITY CONTROL.

LAZ040-048-061>063-065-066-069-232000-
SOUTHEAST LOUISIANA

CITY           SKY/WX    TMP DP  RH WIND       PRES   REMARKS
N.O. AUDUBON     N/A     93 N/A N/A MISG        N/A
N.O. INTL ARPT PTSUNNY   92  75  57 CALM      29.99F HX 103
N.O. LAKEFRONT MOSUNNY   91  76  61 N6        30.00F HX 103
N.O. DOWNTOWN* NOT AVBL
RESERVE*       FAIR      93  75  54 CALM      29.99F HX 104
SLIDELL        MOSUNNY   91  77  63 SW5       29.98F HX 104
BATON ROUGE    PTSUNNY   93  74  53 W8        29.99F HX 103
BOOTHVILLE     LGT RAIN  86  75  69 SW6       30.01S HX  95
BELLE CHASSE   CLOUDY    82  74  76 SE8       30.00F THUNDER
BOGALUSA*      FAIR      92  74  54 N5        30.00F HX 102
GALLIANO*      CLOUDY    81  77  86 SW7       30.01S
NEW ROADS*     FAIR      91  76  62 NW5       29.99S THUNDER HX 102
GONZALES*      FAIR      92  75  57 W3        29.98S HX 103
HAMMOND*       MOSUNNY   95  72  46 W5        29.98F HX 103
HOUMA*         NOT AVBL
PORT FOURCHON* MOCLDY    86  73  66 W8        30.01S

$$

LAZ041-044-053-054-232000-
SOUTHWEST LOUISIANA

CITY           SKY/WX    TMP DP  RH WIND       PRES   REMARKS
LAKE CHARLES   PTSUNNY   93  74  53 SW9       29.97F HX 103
LAFAYETTE      HVY RAIN  81  78  91 S10       30.00R FOG
PATTERSON      NOT AVBL
SALT POINT       N/A     88  76  67 W5        29.99S HX  99
NEW IBERIA     MOSUNNY   87  77  72 W8        30.00S HX  99
CHENAULT AIRPK NOT AVBL

$$

LAZ027-028-232000-
CENTRAL LOUISIANA

CITY           SKY/WX    TMP DP  RH WIND       PRES   REMARKS
FORT POLK      MOSUNNY   92  76  58 SW7       29.98F HX 105
ALEXANDRIA INT MOSUNNY   94  75  54 W6        29.95F HX 105
ALEXANDRIA     SUNNY     94  78  60 S6        29.97F HX 110

$$

LAZ001-002-232000-
NORTHWEST LOUISIANA

CITY           SKY/WX    TMP DP  RH WIND       PRES   REMARKS
SHREVEPORT     MOSUNNY   98  74  45 CALM      29.95F HX 109
BARKSDALE AFB  MOSUNNY   96  73  48 VRB2      29.95F HX 105
DTN SHREVEPORT SUNNY     99  72  41 VRB5      29.95F HX 108

$$

LAZ014-016-232000-
NORTHEAST LOUISIANA

CITY           SKY/WX    TMP DP  RH WIND       PRES   REMARKS
MONROE         MOSUNNY   93  77  59 VRB5      29.96F HX 107
TALLULAH       MOSUNNY   94  77  57 VRB3      29.97F HX 108

$$




USA.gov is the U.S. government's official web portal to all federal, state and local government web resources and services.